TimeEDT,TemperatureF,Dew PointF,Humidity,Sea Level PressureIn,VisibilityMPH,Wind Direction,Wind SpeedMPH,Gust SpeedMPH,PrecipitationIn,Events,Conditions,WindDirDegrees,DateUTC
12:54 AM,57.9,54.0,87,29.90,-9999.0,NE,3.5,-,N/A,,Unknown,40,2013-06-19 04:54:00
1:54 AM,57.0,54.0,89,29.91,-9999.0,Calm,Calm,-,N/A,,Unknown,0,2013-06-19 05:54:00
2:54 AM,57.0,54.0,89,29.93,-9999.0,Calm,Calm,-,N/A,,Unknown,0,2013-06-19 06:54:00
3:54 AM,55.0,52.0,89,29.95,-9999.0,Calm,Calm,-,N/A,,Unknown,0,2013-06-19 07:54:00
4:54 AM,55.9,53.1,90,29.95,-9999.0,Calm,Calm,-,N/A,,Unknown,0,2013-06-19 08:54:00
5:54 AM,55.0,52.0,89,29.97,-9999.0,Calm,Calm,-,N/A,,Unknown,0,2013-06-19 09:54:00
6:54 AM,55.9,53.1,90,29.99,-9999.0,Calm,Calm,-,N/A,,Unknown,0,2013-06-19 10:54:00
7:54 AM,57.9,53.1,84,30.03,-9999.0,Calm,Calm,-,N/A,,Unknown,0,2013-06-19 11:54:00
8:54 AM,62.1,51.1,67,30.05,-9999.0,NE,4.6,-,N/A,,Unknown,50,2013-06-19 12:54:00
9:54 AM,64.9,50.0,58,30.06,-9999.0,Variable,6.9,-,N/A,,Unknown,0,2013-06-19 13:54:00
10:54 AM,69.1,50.0,51,30.07,-9999.0,NE,6.9,-,N/A,,Unknown,40,2013-06-19 14:54:00
11:54 AM,71.1,48.9,45,30.07,-9999.0,Variable,5.8,-,N/A,,Unknown,0,2013-06-19 15:54:00
12:54 PM,69.1,48.9,49,30.08,-9999.0,Calm,Calm,-,N/A,,Unknown,0,2013-06-19 16:54:00
1:54 PM,73.0,51.1,46,30.06,-9999.0,Calm,Calm,-,N/A,,Unknown,0,2013-06-19 17:54:00
2:54 PM,73.0,46.9,39,30.06,-9999.0,ENE,3.5,-,N/A,,Unknown,70,2013-06-19 18:54:00
3:54 PM,75.0,46.0,36,30.06,-9999.0,Variable,4.6,-,N/A,,Unknown,0,2013-06-19 19:54:00
4:54 PM,75.9,48.0,37,30.06,-9999.0,Variable,3.5,-,N/A,,Unknown,0,2013-06-19 20:54:00
5:54 PM,73.9,46.0,37,30.06,-9999.0,NNW,3.5,-,N/A,,Unknown,330,2013-06-19 21:54:00
6:54 PM,75.0,46.9,37,30.07,-9999.0,Calm,Calm,-,N/A,,Unknown,0,2013-06-19 22:54:00
7:54 PM,68.0,54.0,61,30.09,-9999.0,Calm,Calm,-,N/A,,Unknown,0,2013-06-19 23:54:00
8:54 PM,62.1,54.0,75,30.11,-9999.0,Calm,Calm,-,N/A,,Unknown,0,2013-06-20 00:54:00
9:54 PM,59.0,54.0,83,30.14,-9999.0,Calm,Calm,-,N/A,,Unknown,0,2013-06-20 01:54:00
10:54 PM,57.0,53.1,87,30.16,-9999.0,Calm,Calm,-,N/A,,Unknown,0,2013-06-20 02:54:00
11:54 PM,55.9,53.1,90,30.18,-9999.0,Calm,Calm,-,N/A,,Unknown,0,2013-06-20 03:54:00